Time,TemperatureF,DewpointF,PressureIn,WindDirection,WindDirectionDegrees,WindSpeedMPH,WindSpeedGustMPH,Humidity,HourlyPrecipIn,Conditions,Clouds,dailyrainin,SoftwareType,DateUTC
2013-03-12 00:11:00,32.9,18.0,29.92,NNE,16,8.0,16.0,55,0.00,,,0.11,weatherlink.com 1.10,2013-03-12 00:11:00,
2013-03-12 00:26:00,32.9,18.0,29.91,East,85,7.0,14.0,55,0.00,,,0.11,weatherlink.com 1.10,2013-03-12 00:26:00,
2013-03-12 00:41:00,33.0,19.0,29.92,East,79,3.0,18.0,56,0.00,,,0.11,weatherlink.com 1.10,2013-03-12 00:41:00,
2013-03-12 00:56:00,32.9,19.0,29.92,ENE,68,12.0,15.0,56,0.00,,,0.11,weatherlink.com 1.10,2013-03-12 00:56:00,
2013-03-12 01:11:00,32.9,18.0,29.92,NE,43,6.0,20.0,54,0.00,,,0.11,weatherlink.com 1.10,2013-03-12 01:11:00,
2013-03-12 01:26:00,32.9,18.0,29.92,East,82,6.0,15.0,55,0.00,,,0.00,weatherlink.com 1.10,2013-03-12 01:26:00,
2013-03-12 01:41:00,32.9,19.0,29.92,NNE,26,2.0,12.0,57,0.00,,,0.00,weatherlink.com 1.10,2013-03-12 01:41:00,
2013-03-12 01:56:00,32.9,18.0,29.92,ENE,77,5.0,14.0,55,0.00,,,0.00,weatherlink.com 1.10,2013-03-12 01:56:00,
2013-03-12 02:11:00,33.0,19.0,29.92,NE,34,5.0,13.0,57,0.00,,,0.00,weatherlink.com 1.10,2013-03-12 02:11:00,
2013-03-12 02:27:00,33.0,19.0,29.92,NNW,330,4.0,16.0,57,0.00,,,0.00,weatherlink.com 1.10,2013-03-12 02:27:00,
2013-03-12 02:41:00,33.1,20.0,29.92,ENE,63,6.0,14.0,58,0.00,,,0.00,weatherlink.com 1.10,2013-03-12 02:41:00,
2013-03-12 02:56:00,33.1,20.0,29.91,East,81,8.0,17.0,60,0.00,,,0.00,weatherlink.com 1.10,2013-03-12 02:56:00,
2013-03-12 03:12:00,33.2,20.0,29.91,NE,52,8.0,12.0,59,0.00,,,0.00,weatherlink.com 1.10,2013-03-12 03:12:00,
2013-03-12 03:27:00,33.2,20.0,29.91,ESE,107,5.0,15.0,58,0.00,,,0.00,weatherlink.com 1.10,2013-03-12 03:27:00,
2013-03-12 03:42:00,33.3,20.0,29.91,ESE,103,3.0,14.0,58,0.00,,,0.00,weatherlink.com 1.10,2013-03-12 03:42:00,
2013-03-12 03:57:00,33.5,20.0,29.91,NNE,33,9.0,15.0,57,0.00,,,0.00,weatherlink.com 1.10,2013-03-12 03:57:00,
2013-03-12 04:42:00,33.2,19.0,29.91,ESE,110,5.0,10.0,56,0.00,,,0.00,weatherlink.com 1.10,2013-03-12 04:42:00,
2013-03-12 04:57:00,33.1,19.0,29.91,ENE,72,7.0,12.0,56,0.00,,,0.00,weatherlink.com 1.10,2013-03-12 04:57:00,
2013-03-12 05:12:00,33.3,20.0,29.92,NNW,344,4.0,11.0,58,0.00,,,0.00,weatherlink.com 1.10,2013-03-12 05:12:00,
2013-03-12 05:27:00,33.5,21.0,29.92,NE,53,6.0,11.0,61,0.00,,,0.00,weatherlink.com 1.10,2013-03-12 05:27:00,
2013-03-12 05:42:00,33.5,21.0,29.92,NNE,16,6.0,12.0,61,0.00,,,0.00,weatherlink.com 1.10,2013-03-12 05:42:00,
2013-03-12 05:57:00,33.3,20.0,29.92,NNE,19,6.0,11.0,59,0.00,,,0.00,weatherlink.com 1.10,2013-03-12 05:57:00,
2013-03-12 06:12:00,33.3,19.0,29.92,NNE,18,6.0,13.0,57,0.00,,,0.00,weatherlink.com 1.10,2013-03-12 06:12:00,
2013-03-12 06:27:00,33.5,20.0,29.92,NNE,30,8.0,11.0,58,0.00,,,0.00,weatherlink.com 1.10,2013-03-12 06:27:00,
2013-03-12 06:42:00,32.0,22.0,29.92,NNE,15,4.0,9.0,67,0.00,,,0.00,weatherlink.com 1.10,2013-03-12 06:42:00,
2013-03-12 06:57:00,31.3,23.0,29.93,North,354,5.0,7.0,70,0.00,,,0.00,weatherlink.com 1.10,2013-03-12 06:57:00,
2013-03-12 07:12:00,30.9,23.0,29.93,NE,35,3.0,9.0,72,0.00,,,0.00,weatherlink.com 1.10,2013-03-12 07:12:00,
2013-03-12 07:27:00,30.8,23.0,29.93,North,6,5.0,9.0,72,0.00,,,0.00,weatherlink.com 1.10,2013-03-12 07:27:00,
2013-03-12 07:42:00,30.6,23.0,29.93,North,6,3.0,9.0,73,0.00,,,0.00,weatherlink.com 1.10,2013-03-12 07:42:00,
2013-03-12 07:57:00,30.4,22.0,29.93,NNE,27,6.0,11.0,72,0.00,,,0.00,weatherlink.com 1.10,2013-03-12 07:57:00,
2013-03-12 08:12:00,31.2,22.0,29.93,NE,36,3.0,6.0,70,0.00,,,0.00,weatherlink.com 1.10,2013-03-12 08:12:00,
2013-03-12 08:27:00,31.6,22.0,29.92,NNE,31,7.0,8.0,69,0.00,,,0.00,weatherlink.com 1.10,2013-03-12 08:27:00,
2013-03-12 08:42:00,31.3,22.0,29.92,NNE,22,8.0,9.0,68,0.00,,,0.00,weatherlink.com 1.10,2013-03-12 08:42:00,
2013-03-12 08:57:00,32.1,23.0,29.92,ENE,57,4.0,9.0,68,0.00,,,0.00,weatherlink.com 1.10,2013-03-12 08:57:00,
2013-03-12 09:12:00,33.9,23.0,29.91,NNE,27,6.0,12.0,64,0.00,,,0.00,weatherlink.com 1.10,2013-03-12 09:12:00,
2013-03-12 09:27:00,35.1,23.0,29.91,NNE,23,8.0,12.0,62,0.00,,,0.00,weatherlink.com 1.10,2013-03-12 09:27:00,
2013-03-12 09:44:00,35.8,23.0,29.91,ENE,57,5.0,12.0,61,0.00,,,0.00,weatherlink.com 1.10,2013-03-12 09:44:00,
2013-03-12 09:58:00,36.2,24.0,29.91,NNW,339,4.0,12.0,61,0.00,,,0.00,weatherlink.com 1.10,2013-03-12 09:58:00,
2013-03-12 10:13:00,36.6,24.0,29.91,NNE,28,7.0,12.0,61,0.00,,,0.00,weatherlink.com 1.10,2013-03-12 10:13:00,
2013-03-12 10:28:00,37.2,24.0,29.91,NNW,333,6.0,11.0,60,0.00,,,0.00,weatherlink.com 1.10,2013-03-12 10:28:00,
2013-03-12 10:43:00,37.9,25.0,29.91,NE,40,3.0,11.0,60,0.00,,,0.00,weatherlink.com 1.10,2013-03-12 10:43:00,
2013-03-12 10:58:00,38.2,24.0,29.91,NE,56,8.0,9.0,58,0.00,,,0.00,weatherlink.com 1.10,2013-03-12 10:58:00,
2013-03-12 11:13:00,38.0,23.0,29.91,NNE,26,7.0,11.0,56,0.00,,,0.00,weatherlink.com 1.10,2013-03-12 11:13:00,
2013-03-12 11:28:00,38.6,23.0,29.90,ENE,76,5.0,12.0,53,0.00,,,0.00,weatherlink.com 1.10,2013-03-12 11:28:00,
2013-03-12 11:43:00,39.4,23.0,29.90,NNE,12,9.0,13.0,53,0.00,,,0.00,weatherlink.com 1.10,2013-03-12 11:43:00,
2013-03-12 11:58:00,39.6,23.0,29.90,NW,307,7.0,11.0,52,0.00,,,0.00,weatherlink.com 1.10,2013-03-12 11:58:00,
2013-03-12 12:13:00,39.6,25.0,29.90,NNE,18,2.0,14.0,57,0.00,,,0.00,weatherlink.com 1.10,2013-03-12 12:13:00,
2013-03-12 12:28:00,39.7,26.0,29.89,SE,128,3.0,10.0,59,0.00,,,0.00,weatherlink.com 1.10,2013-03-12 12:28:00,
2013-03-12 12:43:00,40.0,27.0,29.88,NNE,20,6.0,11.0,60,0.00,,,0.00,weatherlink.com 1.10,2013-03-12 12:43:00,
2013-03-12 12:58:00,40.1,27.0,29.88,North,8,6.0,12.0,59,0.00,,,0.00,weatherlink.com 1.10,2013-03-12 12:58:00,
2013-03-12 13:13:00,40.0,27.0,29.87,North,10,3.0,11.0,61,0.00,,,0.00,weatherlink.com 1.10,2013-03-12 13:13:00,
2013-03-12 13:28:00,39.5,28.0,29.87,North,356,4.0,13.0,63,0.00,,,0.00,weatherlink.com 1.10,2013-03-12 13:28:00,
2013-03-12 13:43:00,40.4,28.0,29.86,NNW,335,3.0,10.0,62,0.00,,,0.00,weatherlink.com 1.10,2013-03-12 13:43:00,
2013-03-12 13:58:00,40.1,27.0,29.86,North,354,9.0,10.0,61,0.00,,,0.00,weatherlink.com 1.10,2013-03-12 13:58:00,
2013-03-12 14:13:00,39.6,28.0,29.86,North,356,7.0,10.0,63,0.00,,,0.00,weatherlink.com 1.10,2013-03-12 14:13:00,
2013-03-12 14:28:00,40.2,28.0,29.86,NNW,329,3.0,8.0,62,0.00,,,0.00,weatherlink.com 1.10,2013-03-12 14:28:00,
2013-03-12 14:43:00,39.7,28.0,29.86,NE,37,6.0,8.0,63,0.00,,,0.00,weatherlink.com 1.10,2013-03-12 14:43:00,
2013-03-12 14:58:00,39.7,28.0,29.85,WNW,301,6.0,11.0,64,0.00,,,0.00,weatherlink.com 1.10,2013-03-12 14:58:00,
2013-03-12 15:13:00,39.5,29.0,29.85,West,276,2.0,9.0,65,0.00,,,0.00,weatherlink.com 1.10,2013-03-12 15:13:00,
2013-03-12 15:28:00,39.4,28.0,29.85,NNE,12,4.0,12.0,65,0.00,,,0.00,weatherlink.com 1.10,2013-03-12 15:28:00,
2013-03-12 15:43:00,39.5,29.0,29.84,NW,308,1.0,8.0,65,0.00,,,0.00,weatherlink.com 1.10,2013-03-12 15:43:00,
2013-03-12 15:58:00,39.5,29.0,29.84,West,267,1.0,8.0,65,0.00,,,0.00,weatherlink.com 1.10,2013-03-12 15:58:00,
2013-03-12 16:13:00,39.7,29.0,29.84,West,262,2.0,8.0,65,0.00,,,0.00,weatherlink.com 1.10,2013-03-12 16:13:00,
2013-03-12 16:28:00,39.5,29.0,29.84,NW,314,2.0,7.0,66,0.00,,,0.00,weatherlink.com 1.10,2013-03-12 16:28:00,
2013-03-12 16:43:00,39.2,29.0,29.83,SW,218,1.0,7.0,67,0.00,,,0.00,weatherlink.com 1.10,2013-03-12 16:43:00,
2013-03-12 16:58:00,39.2,29.0,29.83,North,354,1.0,6.0,68,0.00,,,0.00,weatherlink.com 1.10,2013-03-12 16:58:00,
2013-03-12 17:13:00,39.2,30.0,29.84,NNW,348,1.0,8.0,69,0.00,,,0.00,weatherlink.com 1.10,2013-03-12 17:13:00,
2013-03-12 17:28:00,39.1,30.0,29.84,SW,228,1.0,3.0,70,0.00,,,0.00,weatherlink.com 1.10,2013-03-12 17:28:00,
2013-03-12 17:43:00,39.1,30.0,29.84,West,262,1.0,5.0,71,0.00,,,0.00,weatherlink.com 1.10,2013-03-12 17:43:00,
2013-03-12 17:58:00,39.1,30.0,29.84,WSW,248,1.0,4.0,71,0.00,,,0.00,weatherlink.com 1.10,2013-03-12 17:58:00,
2013-03-12 18:13:00,39.1,30.0,29.83,West,270,1.0,4.0,71,0.00,,,0.00,weatherlink.com 1.10,2013-03-12 18:13:00,
2013-03-12 18:29:00,39.0,31.0,29.83,West,278,2.0,3.0,72,0.00,,,0.00,weatherlink.com 1.10,2013-03-12 18:29:00,
2013-03-12 18:44:00,38.9,31.0,29.83,WSW,256,1.0,4.0,73,0.00,,,0.00,weatherlink.com 1.10,2013-03-12 18:44:00,
2013-03-12 18:59:00,38.7,31.0,29.83,WNW,288,1.0,4.0,74,0.00,,,0.00,weatherlink.com 1.10,2013-03-12 18:59:00,
2013-03-12 19:14:00,38.7,31.0,29.83,WSW,242,1.0,3.0,74,0.00,,,0.00,weatherlink.com 1.10,2013-03-12 19:14:00,
2013-03-12 19:29:00,38.7,31.0,29.83,WSW,239,0.0,3.0,75,0.00,,,0.00,weatherlink.com 1.10,2013-03-12 19:29:00,
2013-03-12 19:44:00,39.0,32.0,29.83,West,281,0.0,3.0,75,0.00,,,0.00,weatherlink.com 1.10,2013-03-12 19:44:00,
2013-03-12 19:59:00,38.9,32.0,29.83,WSW,245,0.0,2.0,75,0.00,,,0.00,weatherlink.com 1.10,2013-03-12 19:59:00,
2013-03-12 20:14:00,38.4,31.0,29.83,West,278,0.0,2.0,76,0.00,,,0.00,weatherlink.com 1.10,2013-03-12 20:14:00,
2013-03-12 20:29:00,38.2,32.0,29.82,WNW,295,0.0,3.0,77,0.00,,,0.00,weatherlink.com 1.10,2013-03-12 20:29:00,
2013-03-12 20:44:00,38.2,32.0,29.82,West,266,1.0,2.0,77,0.00,,,0.00,weatherlink.com 1.10,2013-03-12 20:44:00,
2013-03-12 20:59:00,37.9,31.0,29.83,WNW,283,1.0,1.0,77,0.00,,,0.00,weatherlink.com 1.10,2013-03-12 20:59:00,
2013-03-12 21:14:00,38.0,32.0,29.83,West,266,0.0,4.0,78,0.00,,,0.00,weatherlink.com 1.10,2013-03-12 21:14:00,
2013-03-12 21:29:00,38.1,32.0,29.83,West,266,0.0,3.0,78,0.00,,,0.00,weatherlink.com 1.10,2013-03-12 21:29:00,
2013-03-12 21:44:00,37.9,32.0,29.83,WSW,245,2.0,4.0,79,0.00,,,0.00,weatherlink.com 1.10,2013-03-12 21:44:00,
2013-03-12 21:59:00,37.4,32.0,29.83,West,278,2.0,4.0,80,0.00,,,0.00,weatherlink.com 1.10,2013-03-12 21:59:00,
2013-03-12 22:14:00,36.7,32.0,29.83,West,266,2.0,4.0,82,0.00,,,0.00,weatherlink.com 1.10,2013-03-12 22:14:00,
2013-03-12 22:29:00,36.2,32.0,29.82,West,280,1.0,3.0,83,0.00,,,0.00,weatherlink.com 1.10,2013-03-12 22:29:00,
2013-03-12 22:44:00,35.8,31.0,29.83,WSW,255,1.0,3.0,84,0.00,,,0.00,weatherlink.com 1.10,2013-03-12 22:44:00,
2013-03-12 22:59:00,36.1,32.0,29.83,West,270,1.0,4.0,84,0.00,,,0.00,weatherlink.com 1.10,2013-03-12 22:59:00,
2013-03-12 23:14:00,35.8,31.0,29.83,SW,231,1.0,2.0,84,0.00,,,0.00,weatherlink.com 1.10,2013-03-12 23:14:00,
2013-03-12 23:29:00,35.7,32.0,29.83,WSW,250,1.0,3.0,86,0.00,,,0.00,weatherlink.com 1.10,2013-03-12 23:29:00,
2013-03-12 23:44:00,35.9,32.0,29.83,WSW,255,2.0,4.0,86,0.00,,,0.00,weatherlink.com 1.10,2013-03-12 23:44:00,
2013-03-12 23:59:00,35.9,32.0,29.83,West,267,0.0,4.0,86,0.00,,,0.00,weatherlink.com 1.10,2013-03-12 23:59:00,